TimeCST,TemperatureF,Dew PointF,Humidity,Sea Level PressureIn,VisibilityMPH,Wind Direction,Wind SpeedMPH,Gust SpeedMPH,PrecipitationIn,Events,Conditions,WindDirDegrees,DateUTC
12:02 AM,68.0,66.2,94,29.95,1.2,South,8.1,-,0.03,Rain,Rain,180,2013-01-16 06:02:00
12:05 AM,68.0,66.2,94,29.95,1.5,South,6.9,-,0.03,Rain,Light Rain,180,2013-01-16 06:05:00
12:15 AM,68.0,66.2,94,29.94,3.0,Variable,6.9,-,0.04,Rain,Light Rain,0,2013-01-16 06:15:00
12:24 AM,68.0,66.2,94,29.94,2.5,SSE,8.1,-,0.06,Rain,Light Rain,160,2013-01-16 06:24:00
12:27 AM,68.0,66.2,94,29.94,1.5,South,6.9,-,0.07,Rain,Rain,170,2013-01-16 06:27:00
12:41 AM,68.0,66.2,94,29.94,1.0,South,10.4,-,0.11,Rain,Rain,190,2013-01-16 06:41:00
12:53 AM,68.0,66.0,93,29.93,1.0,South,8.1,-,0.17,Rain,Rain,190,2013-01-16 06:53:00
1:03 AM,68.0,66.2,94,29.95,0.5,WSW,9.2,-,0.12,Fog-Rain,Heavy Rain,250,2013-01-16 07:03:00
1:10 AM,68.0,66.2,94,29.95,1.0,SW,5.8,-,0.14,Rain,Rain,230,2013-01-16 07:10:00
1:13 AM,68.0,66.2,94,29.95,1.5,SW,5.8,-,0.14,Rain,Rain,220,2013-01-16 07:13:00
1:15 AM,66.2,66.2,100,29.95,2.0,SW,6.9,-,0.14,Rain,Rain,220,2013-01-16 07:15:00
1:42 AM,68.0,66.2,94,29.96,5.0,SW,4.6,-,0.16,Rain,Light Rain,220,2013-01-16 07:42:00
1:51 AM,66.2,66.2,100,29.96,2.5,SW,5.8,-,0.17,Rain,Light Rain,220,2013-01-16 07:51:00
1:53 AM,66.9,66.0,97,29.95,2.5,SSW,5.8,-,0.17,Rain,Light Rain,210,2013-01-16 07:53:00
2:05 AM,66.2,66.2,100,29.96,1.5,South,6.9,-,0.04,Rain,Rain,190,2013-01-16 08:05:00
2:26 AM,66.2,64.4,94,29.95,1.0,South,6.9,-,0.15,Rain,Rain,180,2013-01-16 08:26:00
2:38 AM,66.2,64.4,94,29.95,1.2,South,6.9,-,0.23,Rain,Rain,190,2013-01-16 08:38:00
2:45 AM,66.2,64.4,94,29.95,1.5,SSW,8.1,-,0.25,Rain,Rain,200,2013-01-16 08:45:00
2:53 AM,66.0,64.9,96,29.94,1.2,South,8.1,-,0.28,Rain,Rain,190,2013-01-16 08:53:00
2:56 AM,66.2,64.4,94,29.95,1.8,SSW,5.8,-,0.00,Rain,Light Rain,200,2013-01-16 08:56:00
2:59 AM,66.2,64.4,94,29.94,3.0,SSW,5.8,-,0.00,Rain,Light Rain,200,2013-01-16 08:59:00
3:23 AM,66.2,64.4,94,29.93,1.8,SSW,3.5,-,0.04,Rain,Heavy Rain,200,2013-01-16 09:23:00
3:31 AM,66.2,64.4,94,29.93,1.8,SSE,4.6,-,0.06,Rain,Light Rain,160,2013-01-16 09:31:00
3:33 AM,66.2,64.4,94,29.93,2.0,Variable,3.5,-,0.06,Rain,Rain,0,2013-01-16 09:33:00
3:37 AM,66.2,64.4,94,29.94,2.0,WSW,8.1,-,0.07,Rain,Rain,240,2013-01-16 09:37:00
3:43 AM,66.2,64.4,94,29.94,3.0,South,18.4,26.5,0.07,Rain,Light Rain,190,2013-01-16 09:43:00
3:53 AM,66.9,64.9,93,29.92,10.0,South,8.1,-,0.07,,Overcast,190,2013-01-16 09:53:00
4:05 AM,66.2,64.4,94,29.94,10.0,SSW,8.1,-,N/A,,Overcast,200,2013-01-16 10:05:00
4:12 AM,66.2,64.4,94,29.93,9.0,SSW,8.1,-,N/A,,Overcast,200,2013-01-16 10:12:00
4:53 AM,66.9,66.0,97,29.92,7.0,South,5.8,-,N/A,,Overcast,190,2013-01-16 10:53:00
5:00 AM,68.0,66.2,94,29.94,8.0,Variable,5.8,-,N/A,,Overcast,0,2013-01-16 11:00:00
5:53 AM,55.0,53.1,93,29.97,10.0,WNW,6.9,-,0.02,,Overcast,300,2013-01-16 11:53:00
6:26 AM,55.4,53.6,94,30.00,10.0,NW,6.9,-,N/A,,Overcast,310,2013-01-16 12:26:00
6:53 AM,54.0,52.0,93,29.99,10.0,NNW,3.5,-,N/A,,Overcast,330,2013-01-16 12:53:00
7:03 AM,53.6,51.8,94,30.00,10.0,North,3.5,-,N/A,,Overcast,350,2013-01-16 13:03:00
7:53 AM,54.0,52.0,93,30.01,4.0,North,5.8,-,N/A,,Overcast,350,2013-01-16 13:53:00
8:48 AM,55.4,53.6,94,30.03,2.0,North,4.6,-,0.00,Rain,Light Rain,360,2013-01-16 14:48:00
8:53 AM,55.0,53.1,93,30.02,4.0,NNW,5.8,-,0.00,,Overcast,340,2013-01-16 14:53:00
9:53 AM,55.9,54.0,93,30.02,6.0,Calm,Calm,-,0.00,,Overcast,0,2013-01-16 15:53:00
10:53 AM,57.0,55.0,93,30.00,5.0,WNW,5.8,-,N/A,,Overcast,300,2013-01-16 16:53:00
11:47 AM,57.2,55.4,94,29.99,1.8,NW,5.8,-,0.01,Rain,Light Rain,320,2013-01-16 17:47:00
11:49 AM,57.2,55.4,94,29.99,1.2,NNW,5.8,-,0.02,Rain,Light Rain,330,2013-01-16 17:49:00
11:53 AM,55.9,54.0,93,29.98,0.8,NW,6.9,-,0.04,Rain,Heavy Rain,310,2013-01-16 17:53:00
12:01 PM,55.4,53.6,94,29.99,1.2,WNW,6.9,-,0.01,Rain,Light Rain,300,2013-01-16 18:01:00
12:03 PM,55.4,53.6,94,29.99,1.8,West,5.8,-,0.01,Rain,Light Rain,280,2013-01-16 18:03:00
12:12 PM,55.4,53.6,94,29.98,1.2,WNW,5.8,-,0.01,Rain,Light Rain,300,2013-01-16 18:12:00
12:15 PM,55.4,53.6,94,29.98,0.8,NW,5.8,-,0.03,Rain,Light Rain,320,2013-01-16 18:15:00
12:23 PM,55.4,53.6,94,29.98,1.0,NNW,4.6,-,0.03,Rain,Light Rain,330,2013-01-16 18:23:00
12:25 PM,55.4,53.6,94,29.98,1.5,NNW,5.8,-,0.03,Rain,Light Rain,330,2013-01-16 18:25:00
12:27 PM,55.4,53.6,94,29.98,2.0,NNW,4.6,-,0.03,Rain,Light Rain,330,2013-01-16 18:27:00
12:29 PM,55.4,53.6,94,29.98,3.0,NW,4.6,-,0.03,Rain,Light Rain,320,2013-01-16 18:29:00
12:35 PM,55.4,53.6,94,29.97,1.8,NNW,5.8,-,0.04,Rain,Light Rain,340,2013-01-16 18:35:00
12:37 PM,55.4,53.6,94,29.97,1.5,NNW,6.9,-,0.04,Rain,Light Rain,340,2013-01-16 18:37:00
12:43 PM,55.4,53.6,94,29.97,1.8,NW,6.9,-,0.04,Rain,Light Rain,320,2013-01-16 18:43:00
12:45 PM,55.4,53.6,94,29.97,1.2,NW,6.9,-,0.05,Rain,Light Rain,320,2013-01-16 18:45:00
12:49 PM,55.4,53.6,94,29.97,0.8,NNW,6.9,-,0.06,Rain,Rain,330,2013-01-16 18:49:00
12:53 PM,55.9,54.0,93,29.96,0.8,NNW,8.1,-,0.06,Rain,Light Rain,330,2013-01-16 18:53:00
12:57 PM,55.4,53.6,94,29.97,1.2,NW,8.1,-,0.01,Rain,Light Rain,320,2013-01-16 18:57:00
12:59 PM,55.4,53.6,94,29.97,1.8,NNW,9.2,-,0.01,Rain,Light Rain,330,2013-01-16 18:59:00
1:02 PM,55.4,53.6,94,29.97,3.0,NNW,9.2,-,0.01,Rain,Light Rain,330,2013-01-16 19:02:00
1:53 PM,55.0,53.1,93,29.95,9.0,NNW,8.1,-,0.02,,Overcast,330,2013-01-16 19:53:00
2:33 PM,53.6,51.8,94,29.96,2.5,NNW,4.6,-,0.01,Rain,Light Rain,340,2013-01-16 20:33:00
2:36 PM,53.6,51.8,94,29.96,1.5,NNW,5.8,-,0.02,Rain,Rain,330,2013-01-16 20:36:00
2:46 PM,53.6,51.8,94,29.96,2.0,North,5.8,-,0.02,Rain,Light Rain,350,2013-01-16 20:46:00
2:53 PM,54.0,52.0,93,29.95,3.0,North,5.8,-,0.03,Rain,Light Rain,350,2013-01-16 20:53:00
2:57 PM,53.6,51.8,94,29.96,2.5,North,4.6,-,0.00,Rain,Light Rain,360,2013-01-16 20:57:00
3:03 PM,53.6,51.8,94,29.97,1.5,NNW,3.5,-,0.01,Rain,Rain,340,2013-01-16 21:03:00
3:11 PM,53.6,51.8,94,29.97,1.2,NW,5.8,-,0.03,Rain,Rain,320,2013-01-16 21:11:00
3:16 PM,53.6,51.8,94,29.98,0.8,WNW,4.6,-,0.06,Rain,Heavy Rain,300,2013-01-16 21:16:00
3:30 PM,53.6,51.8,94,29.98,1.0,NNW,3.5,-,0.11,Rain,Light Rain,330,2013-01-16 21:30:00
3:37 PM,53.6,51.8,94,29.98,1.0,WNW,5.8,-,0.12,Rain,Rain,300,2013-01-16 21:37:00
3:45 PM,53.6,51.8,94,29.98,0.8,NW,4.6,-,0.14,Rain,Light Rain,310,2013-01-16 21:45:00
3:53 PM,53.1,51.1,93,29.98,1.0,NW,5.8,-,0.15,Rain,Light Rain,310,2013-01-16 21:53:00
4:32 PM,53.6,51.8,94,30.00,1.5,WNW,4.6,-,0.03,Rain,Light Rain,290,2013-01-16 22:32:00
4:36 PM,53.6,51.8,94,29.99,1.0,NW,5.8,-,0.03,Rain,Light Rain,310,2013-01-16 22:36:00
4:42 PM,51.8,51.8,100,29.98,1.2,North,3.5,-,0.04,Rain,Light Rain,360,2013-01-16 22:42:00
4:48 PM,51.8,50.0,94,29.99,1.8,NW,5.8,-,0.04,Rain,Light Rain,320,2013-01-16 22:48:00
4:53 PM,52.0,51.1,97,29.99,3.0,NW,3.5,-,0.04,Rain,Light Rain,310,2013-01-16 22:53:00
5:19 PM,51.8,50.0,94,30.00,4.0,WNW,5.8,-,0.00,Rain,Light Rain,300,2013-01-16 23:19:00
5:39 PM,51.8,50.0,94,30.01,10.0,WNW,5.8,-,0.00,,Overcast,290,2013-01-16 23:39:00
5:53 PM,51.1,48.9,92,30.01,10.0,WNW,8.1,-,0.00,,Overcast,300,2013-01-16 23:53:00
6:21 PM,51.8,48.2,88,30.00,8.0,NNW,10.4,-,N/A,,Overcast,330,2013-01-17 00:21:00
6:53 PM,50.0,48.0,93,30.01,6.0,WNW,4.6,-,N/A,,Overcast,300,2013-01-17 00:53:00
7:53 PM,50.0,48.0,93,30.02,7.0,NNW,3.5,-,N/A,,Overcast,330,2013-01-17 01:53:00
8:53 PM,50.0,48.0,93,30.01,7.0,Calm,Calm,-,0.01,,Overcast,0,2013-01-17 02:53:00
9:14 PM,50.0,46.4,87,30.00,8.0,Calm,Calm,-,0.00,Rain,Light Rain,0,2013-01-17 03:14:00
9:28 PM,50.0,46.4,87,29.99,6.0,Calm,Calm,-,0.01,Rain,Light Rain,0,2013-01-17 03:28:00
9:53 PM,50.0,48.0,93,29.98,8.0,North,3.5,-,0.01,,Overcast,360,2013-01-17 03:53:00
10:01 PM,50.0,48.2,94,29.98,5.0,Calm,Calm,-,0.01,Rain,Light Rain,0,2013-01-17 04:01:00
10:44 PM,50.0,48.2,94,29.97,2.5,Calm,Calm,-,0.02,Rain,Light Rain,0,2013-01-17 04:44:00
10:53 PM,50.0,48.0,93,29.96,3.0,Calm,Calm,-,0.02,Rain,Light Rain,0,2013-01-17 04:53:00
11:20 PM,50.0,48.2,94,29.95,8.0,Calm,Calm,-,0.00,,Overcast,0,2013-01-17 05:20:00
11:53 PM,50.0,48.9,96,29.95,9.0,Calm,Calm,-,0.00,Rain,Light Rain,0,2013-01-17 05:53:00